Weather History for Bonaire, Bonaire

Change the Weather History Date:

Thursday, October 10, 2013

  Actual Average Record
Temperature  
Mean Temperature 86 °F -  
Max Temperature 91 °F 87 °F 93 °F (2006)
Min Temperature 82 °F 80 °F 78 °F (1996)
Cooling Degree Days 22    
Growing Degree Days 36 (Base 50)    
Moisture  
Dew Point 76 °F    
Average Humidity 74    
Maximum Humidity 84    
Minimum Humidity 59    
Precipitation  
Precipitation 0.00 in - - ()
Sea Level Pressure  
Sea Level Pressure 29.84 in    
Wind  
Wind Speed 14 mph ()    
Max Wind Speed 18 mph    
Max Gust Speed -    
Visibility 6.2 miles    
Events      
Averages and records for this station are not official NWS values.
T = Trace of Precipitation, MM = Missing Value Source: Averaged Metar Reports

Daily Weather History Graph

Daily Weather History Graph

Search for Another Location

Airport:

Trip Planner

Search our weather history database for the weather conditions in past years. The results will help you decide how hot, cold, wet, or windy it might be!

Date:

Astronomy

Oct. 10, 2013 Rise Set
Actual Time 6:22 AM AST 6:17 PM AST
Civil Twilight 6:01 AM AST 6:38 PM AST
Nautical Twilight 5:36 AM AST 7:03 PM AST
Astronomical Twilight 5:11 AM AST 7:27 PM AST
Moon 11:34 AM AST (10/10) 11:26 PM AST (10/10)
Length of Visible Light 12h 37m
Length of Day
11h 54m
Waxing Crescent, 35% of the Moon is Illuminated
Oct 10
Waxing Crescent
Oct 11
First Quarter
Oct 18
Full
Oct 26
Last Quarter
Nov 3
New

Hourly Weather History & Observations

Time (AST) Temp. Heat Index Dew Point Humidity Pressure Visibility Wind Dir Wind Speed Gust Speed Precip Events Conditions
12:00 AM 82.4 °F 90.9 °F 77.0 °F 84% 29.86 in - East 15.0 mph - N/A   Unknown
12:55 AM 82.4 °F 89.5 °F 75.2 °F 79% 29.86 in - East 16.1 mph - N/A   Unknown
1:55 AM 82.4 °F 89.5 °F 75.2 °F 79% 29.83 in - East 17.3 mph - N/A   Unknown
2:55 AM 82.4 °F 89.5 °F 75.2 °F 79% 29.83 in - North - - N/A   Unknown
3:55 AM 82.4 °F 89.5 °F 75.2 °F 79% 29.83 in - East 15.0 mph - N/A   Unknown
4:55 AM 82.4 °F 89.5 °F 75.2 °F 79% 29.83 in - East 13.8 mph - N/A   Unknown
5:55 AM 82.4 °F 89.5 °F 75.2 °F 79% 29.86 in - East 15.0 mph - N/A   Unknown
6:55 AM 82.4 °F 89.5 °F 75.2 °F 79% 29.86 in - East 15.0 mph - N/A   Unknown
8:00 AM 84.2 °F 92.3 °F 75.2 °F 74% 29.89 in - East 18.4 mph - N/A   Unknown
9:00 AM 86.0 °F 95.1 °F 75.2 °F 70% 29.89 in 6.2 mi East 17.3 mph - N/A   Partly Cloudy
10:00 AM 86.0 °F 95.1 °F 75.2 °F 70% 29.92 in 6.2 mi East 18.4 mph - N/A   Partly Cloudy
11:00 AM 86.0 °F 95.1 °F 75.2 °F 70% 29.89 in 6.2 mi East 17.3 mph - N/A   Partly Cloudy
12:00 PM 87.8 °F 97.6 °F 75.2 °F 66% 29.89 in - East 17.3 mph - N/A   Unknown
1:00 PM 91.4 °F 102.5 °F 75.2 °F 59% 29.86 in 6.2 mi East 12.7 mph - N/A   Partly Cloudy
1:55 PM 89.6 °F 98.2 °F 73.4 °F 59% 29.80 in - East 15.0 mph - N/A   Unknown
2:55 PM 87.8 °F 97.6 °F 75.2 °F 66% 29.80 in 6.2 mi East 16.1 mph - N/A   Scattered Clouds
4:00 PM 86.0 °F 96.9 °F 77.0 °F 74% 29.77 in 6.2 mi ENE 13.8 mph - N/A   Scattered Clouds
5:00 PM 86.0 °F 96.9 °F 77.0 °F 74% 29.77 in 6.2 mi ENE 16.1 mph - N/A   Scattered Clouds
5:55 PM 84.2 °F 92.3 °F 75.2 °F 74% 29.77 in 6.2 mi ENE 15.0 mph - N/A   Partly Cloudy
7:00 PM 84.2 °F 94.1 °F 77.0 °F 79% 29.77 in 6.2 mi ENE 16.1 mph - N/A   Partly Cloudy
8:00 PM 82.4 °F 90.9 °F 77.0 °F 84% 29.80 in 6.2 mi ENE 16.1 mph - N/A   Partly Cloudy
8:55 PM 84.2 °F 94.1 °F 77.0 °F 79% 29.83 in - ENE 16.1 mph - N/A   Unknown